Showing default

SHIYAN 30 02, 65852

Orbit data source: Space-Track

SHIYAN 30 02, 65852 is a payload satellite owned by SAST (CN) in LEO that was launched on Mon, 29 Sep 2025 UTC via a CHANG ZHENG 2D launch vehicle from the Xichang Space Center, China (XSC). Payload-class satellites include a variety of spacecraft equipped with specific instruments for various scientific and technological missions. These include communications satellites like Starlink; space stations such as the ISS; scientific satellites like the Hubble; Earth observation satellites from companies like Planet Labs, Umbra, and HawkEye 360; GPS; miniature CubeSats for education and research; and military/defense satellites.

Loading next visibility...
Identifier
65852, 2025-222B
Orbit
LEO
Country
Flag of CNCN / PRC
Related business
Manufacturer
SAST
Mission
Operational Civil Radar Imaging
Bus & Motor
SY30, Unknown motor
Mass
500 kg wet, ~500 kg dry
Launch date (UTC)
2025-09-29 (9 months ago)
Launch vehicle
CHANG ZHENG 2D
Launch site
Xichang Space Center, China (XSC)
Object type
Payload
Rocket body
Debris
Shape & HBR
Box + 2 Pan, 1.1 m
Radar Cross Section
2.715 m², Large (>1 m²)

Expand to show TLE details & history
Last TLE update: 10 hours ago

TLE from 10 hours ago
0 SHIYAN 30 02
1 65852U 25222B   26171.43816706  .00001285  00000-0  12776-3 0  9993
2 65852  34.9964 242.6686 0002115 161.7607 198.3174 14.91787415 39501
Epoch: 2026-06-20T10:30Z
TLE epoch observation values (Epoch: 2026-06-20T10:30:57.633Z)
Latitude
-0.00003°
Longitude
176.27563°
Altitude
592.683 km
Speed
7.565 km/s
True Right ascension
16h 10m 40s
True Declination
0° 00' 00"
Sunlit
Object was in full shadow at epoch
Visualization orbit readout
Latitude
Unknown
Longitude
Unknown
Altitude
Unknown
Speed
Unknown
Apparent Right ascension
Unknown
Apparent Declination
Unknown
Sunlit
N/A
Visualization observer readout
Local Sidereal Time
07:12:51
Azimuth
Unknown
Elevation
Unknown
Doppler factor
Unknown
Orbital elements
Apogee altitude
597.043 km
Perigee altitude
594.094 km
Semi-major axis
6,973.705 km
Eccentricity
0.00021
Inclination
34.9964°
RAAN
242.6686°
Arg. of periapsis
161.7607°
True anomaly
198.30978°
Mean anomaly
198.3174°
Eccentric anomaly
198.31359°
Mean motion
3.7269 °/min
Orbital period
96.6 mins
BSTAR
0.00012776
Loading maneuver chart data...
Computing Atmospheric mass density...
Loading historical data...
Loading historical data...
Loading historical data...
Loading historical data...
Loading historical data...
Loading historical data...
Loading historical data...
Other satellites on launch #222 in the year 2025 (2025-09-29 UTC)

Documentation

Showing up to 5 results
|